Time,TemperatureF,DewpointF,PressureIn,WindDirection,WindDirectionDegrees,WindSpeedMPH,WindSpeedGustMPH,Humidity,HourlyPrecipIn,Conditions,Clouds,dailyrainin,SoftwareType,DateUTC
2013-10-08 00:03:00,54.9,41.7,29.84,SSE,165,0.6,1.8,61,0.00,,,0.00,WUHU216HW,2013-10-08 07:03:00,
2013-10-08 00:08:00,54.7,41.5,29.85,North,0,0.3,0.4,61,0.00,,,0.00,WUHU216HW,2013-10-08 07:08:00,
2013-10-08 00:13:00,54.9,41.7,29.85,South,180,0.3,0.4,61,0.00,,,0.00,WUHU216HW,2013-10-08 07:13:00,
2013-10-08 00:18:00,55.1,41.9,29.85,SSE,158,0.4,0.4,61,0.00,,,0.00,WUHU216HW,2013-10-08 07:18:00,
2013-10-08 00:23:00,55.1,41.4,29.85,SSE,160,0.5,0.7,60,0.00,,,0.00,WUHU216HW,2013-10-08 07:23:00,
2013-10-08 00:28:00,55.3,41.6,29.85,SE,135,0.7,1.1,60,0.00,,,0.00,WUHU216HW,2013-10-08 07:28:00,
2013-10-08 00:33:00,55.1,41.0,29.85,ESE,108,0.4,0.7,59,0.00,,,0.00,WUHU216HW,2013-10-08 07:33:00,
2013-10-08 00:38:00,54.7,40.7,29.85,East,90,0.2,0.2,59,0.00,,,0.00,WUHU216HW,2013-10-08 07:38:00,
2013-10-08 00:43:00,54.4,40.8,29.85,North,0,0.0,0.0,60,0.00,,,0.00,WUHU216HW,2013-10-08 07:43:00,
2013-10-08 00:48:00,54.4,40.8,29.84,North,0,0.0,0.0,60,0.00,,,0.00,WUHU216HW,2013-10-08 07:48:00,
2013-10-08 00:53:00,54.4,40.8,29.84,North,0,0.0,0.0,60,0.00,,,0.00,WUHU216HW,2013-10-08 07:53:00,
2013-10-08 00:58:00,54.5,41.0,29.85,North,0,0.0,0.0,60,0.00,,,0.00,WUHU216HW,2013-10-08 07:58:00,
2013-10-08 01:03:00,54.4,41.6,29.84,North,0,0.0,0.0,62,0.00,,,0.00,WUHU216HW,2013-10-08 08:03:00,
2013-10-08 01:08:00,53.6,40.5,29.85,North,0,0.0,0.0,61,0.00,,,0.00,WUHU216HW,2013-10-08 08:08:00,
2013-10-08 01:13:00,53.6,40.5,29.84,North,0,0.0,0.0,61,0.00,,,0.00,WUHU216HW,2013-10-08 08:13:00,
2013-10-08 01:18:00,53.8,40.7,29.84,North,0,0.0,0.0,61,0.00,,,0.00,WUHU216HW,2013-10-08 08:18:00,
2013-10-08 01:23:00,53.8,40.7,29.84,North,0,0.0,0.0,61,0.00,,,0.00,WUHU216HW,2013-10-08 08:23:00,
2013-10-08 01:28:00,53.8,40.7,29.84,North,0,0.0,0.0,61,0.00,,,0.00,WUHU216HW,2013-10-08 08:28:00,
2013-10-08 01:33:00,53.6,40.1,29.84,North,0,0.0,0.0,60,0.00,,,0.00,WUHU216HW,2013-10-08 08:33:00,
2013-10-08 01:38:00,53.3,39.8,29.84,North,0,0.0,0.0,60,0.00,,,0.00,WUHU216HW,2013-10-08 08:38:00,
2013-10-08 01:43:00,53.1,40.0,29.85,North,0,0.0,0.0,61,0.00,,,0.00,WUHU216HW,2013-10-08 08:43:00,
2013-10-08 01:48:00,52.9,39.8,29.85,North,0,0.0,0.0,61,0.00,,,0.00,WUHU216HW,2013-10-08 08:48:00,
2013-10-08 01:53:00,52.6,39.5,29.85,North,0,0.0,0.0,61,0.00,,,0.00,WUHU216HW,2013-10-08 08:53:00,
2013-10-08 01:58:00,52.2,40.0,29.85,North,0,0.0,0.0,63,0.00,,,0.00,WUHU216HW,2013-10-08 08:58:00,
2013-10-08 02:03:00,51.8,40.0,29.85,North,0,0.0,0.0,64,0.00,,,0.00,WUHU216HW,2013-10-08 09:03:00,
2013-10-08 02:08:00,52.0,40.1,29.85,North,0,0.0,0.0,64,0.00,,,0.00,WUHU216HW,2013-10-08 09:08:00,
2013-10-08 02:13:00,52.0,39.8,29.85,North,0,0.0,0.0,63,0.00,,,0.00,WUHU216HW,2013-10-08 09:13:00,
2013-10-08 02:18:00,51.5,40.1,29.85,North,0,0.3,0.4,65,0.00,,,0.00,WUHU216HW,2013-10-08 09:18:00,
2013-10-08 02:23:00,51.1,39.7,29.85,North,0,0.0,0.0,65,0.00,,,0.00,WUHU216HW,2013-10-08 09:23:00,
2013-10-08 02:28:00,51.1,39.7,29.85,North,0,0.0,0.0,65,0.00,,,0.00,WUHU216HW,2013-10-08 09:28:00,
2013-10-08 02:33:00,51.3,39.9,29.85,North,0,0.0,0.0,65,0.00,,,0.00,WUHU216HW,2013-10-08 09:33:00,
2013-10-08 02:38:00,51.5,39.7,29.85,North,0,0.0,0.0,64,0.00,,,0.00,WUHU216HW,2013-10-08 09:38:00,
2013-10-08 02:43:00,51.5,40.1,29.84,North,0,0.0,0.0,65,0.00,,,0.00,WUHU216HW,2013-10-08 09:43:00,
2013-10-08 02:48:00,51.5,40.1,29.84,North,0,0.0,0.0,65,0.00,,,0.00,WUHU216HW,2013-10-08 09:48:00,
2013-10-08 02:53:00,51.8,40.0,29.84,North,0,0.0,0.0,64,0.00,,,0.00,WUHU216HW,2013-10-08 09:53:00,
2013-10-08 02:58:00,52.2,40.0,29.84,North,0,0.0,0.0,63,0.00,,,0.00,WUHU216HW,2013-10-08 09:58:00,
2013-10-08 03:03:00,52.4,39.7,29.84,North,0,0.0,0.0,62,0.00,,,0.00,WUHU216HW,2013-10-08 10:03:00,
2013-10-08 03:08:00,52.7,39.2,29.84,North,0,0.0,0.0,60,0.00,,,0.00,WUHU216HW,2013-10-08 10:08:00,
2013-10-08 03:13:00,52.9,39.4,29.84,North,0,0.0,0.0,60,0.00,,,0.00,WUHU216HW,2013-10-08 10:13:00,
2013-10-08 03:18:00,52.7,39.2,29.84,North,0,0.0,0.0,60,0.00,,,0.00,WUHU216HW,2013-10-08 10:18:00,
2013-10-08 03:23:00,52.7,39.2,29.84,North,0,0.0,0.0,60,0.00,,,0.00,WUHU216HW,2013-10-08 10:23:00,
2013-10-08 03:28:00,52.7,39.2,29.84,North,0,0.0,0.0,60,0.00,,,0.00,WUHU216HW,2013-10-08 10:28:00,
2013-10-08 03:33:00,52.6,39.1,29.83,North,0,0.0,0.0,60,0.00,,,0.00,WUHU216HW,2013-10-08 10:33:00,
2013-10-08 03:38:00,52.2,39.2,29.83,North,0,0.0,0.0,61,0.00,,,0.00,WUHU216HW,2013-10-08 10:38:00,
2013-10-08 03:43:00,52.0,39.0,29.83,North,0,0.0,0.0,61,0.00,,,0.00,WUHU216HW,2013-10-08 10:43:00,
2013-10-08 03:48:00,51.8,38.8,29.83,North,0,0.0,0.0,61,0.00,,,0.00,WUHU216HW,2013-10-08 10:48:00,
2013-10-08 03:53:00,51.7,38.6,29.83,North,0,0.0,0.0,61,0.00,,,0.00,WUHU216HW,2013-10-08 10:53:00,
2013-10-08 03:58:00,51.5,38.4,29.83,North,0,0.0,0.0,61,0.00,,,0.00,WUHU216HW,2013-10-08 10:58:00,
2013-10-08 04:03:00,51.1,38.5,29.82,North,0,0.0,0.0,62,0.00,,,0.00,WUHU216HW,2013-10-08 11:03:00,
2013-10-08 04:08:00,50.8,38.2,29.82,North,0,0.0,0.0,62,0.00,,,0.00,WUHU216HW,2013-10-08 11:08:00,
2013-10-08 04:13:00,50.6,38.4,29.82,North,0,0.0,0.0,63,0.00,,,0.00,WUHU216HW,2013-10-08 11:13:00,
2013-10-08 04:18:00,50.4,38.3,29.82,North,0,0.0,0.0,63,0.00,,,0.00,WUHU216HW,2013-10-08 11:18:00,
2013-10-08 04:23:00,50.0,38.4,29.82,North,0,0.0,0.0,64,0.00,,,0.00,WUHU216HW,2013-10-08 11:23:00,
2013-10-08 04:28:00,50.0,38.4,29.82,North,0,0.0,0.0,64,0.00,,,0.00,WUHU216HW,2013-10-08 11:28:00,
2013-10-08 04:33:00,49.9,38.2,29.82,North,0,0.0,0.0,64,0.00,,,0.00,WUHU216HW,2013-10-08 11:33:00,
2013-10-08 04:38:00,49.7,38.0,29.82,North,0,0.0,0.0,64,0.00,,,0.00,WUHU216HW,2013-10-08 11:38:00,
2013-10-08 04:43:00,49.3,37.6,29.82,North,0,0.0,0.0,64,0.00,,,0.00,WUHU216HW,2013-10-08 11:43:00,
2013-10-08 04:48:00,49.1,37.4,29.82,North,0,0.0,0.0,64,0.00,,,0.00,WUHU216HW,2013-10-08 11:48:00,
2013-10-08 04:53:00,49.0,37.3,29.82,North,0,0.0,0.0,64,0.00,,,0.00,WUHU216HW,2013-10-08 11:53:00,
2013-10-08 04:58:00,48.8,37.1,29.82,North,0,0.0,0.0,64,0.00,,,0.00,WUHU216HW,2013-10-08 11:58:00,
2013-10-08 05:04:00,48.6,37.0,29.82,North,0,0.0,0.0,64,0.00,,,0.00,WUHU216HW,2013-10-08 12:04:00,
2013-10-08 05:09:00,48.4,37.2,29.82,North,0,0.0,0.0,65,0.00,,,0.00,WUHU216HW,2013-10-08 12:09:00,
2013-10-08 05:14:00,48.2,37.4,29.82,North,0,0.0,0.0,66,0.00,,,0.00,WUHU216HW,2013-10-08 12:14:00,
2013-10-08 05:19:00,48.1,37.2,29.82,North,0,0.0,0.0,66,0.00,,,0.00,WUHU216HW,2013-10-08 12:19:00,
2013-10-08 05:24:00,47.9,37.5,29.82,North,0,0.0,0.0,67,0.00,,,0.00,WUHU216HW,2013-10-08 12:24:00,
2013-10-08 05:29:00,47.9,37.0,29.82,North,0,0.0,0.0,66,0.00,,,0.00,WUHU216HW,2013-10-08 12:29:00,
2013-10-08 05:34:00,47.9,37.5,29.82,North,0,0.0,0.0,67,0.00,,,0.00,WUHU216HW,2013-10-08 12:34:00,
2013-10-08 05:39:00,47.9,37.5,29.82,North,0,0.0,0.0,67,0.00,,,0.00,WUHU216HW,2013-10-08 12:39:00,
2013-10-08 05:44:00,47.9,37.5,29.82,North,0,0.0,0.0,67,0.00,,,0.00,WUHU216HW,2013-10-08 12:44:00,
2013-10-08 05:49:00,47.7,37.3,29.82,North,0,0.0,0.0,67,0.00,,,0.00,WUHU216HW,2013-10-08 12:49:00,
2013-10-08 05:54:00,47.5,37.1,29.82,North,0,0.0,0.0,67,0.00,,,0.00,WUHU216HW,2013-10-08 12:54:00,
2013-10-08 05:59:00,47.5,37.1,29.82,North,0,0.0,0.0,67,0.00,,,0.00,WUHU216HW,2013-10-08 12:59:00,
2013-10-08 06:04:00,47.7,37.3,29.82,North,0,0.0,0.0,67,0.00,,,0.00,WUHU216HW,2013-10-08 13:04:00,
2013-10-08 06:09:00,47.9,37.0,29.82,North,0,0.0,0.0,66,0.00,,,0.00,WUHU216HW,2013-10-08 13:09:00,
2013-10-08 06:14:00,47.7,36.9,29.82,North,0,0.0,0.0,66,0.00,,,0.00,WUHU216HW,2013-10-08 13:14:00,
2013-10-08 06:19:00,47.3,36.6,29.82,North,0,0.0,0.0,66,0.00,,,0.00,WUHU216HW,2013-10-08 13:19:00,
2013-10-08 06:24:00,47.2,36.7,29.82,North,0,0.0,0.0,67,0.00,,,0.00,WUHU216HW,2013-10-08 13:24:00,
2013-10-08 06:29:00,47.2,36.7,29.82,North,0,0.0,0.0,67,0.00,,,0.00,WUHU216HW,2013-10-08 13:29:00,
2013-10-08 06:34:00,47.2,36.7,29.82,North,0,0.0,0.0,67,0.00,,,0.00,WUHU216HW,2013-10-08 13:34:00,
2013-10-08 06:39:00,47.0,36.5,29.82,North,0,0.0,0.0,67,0.00,,,0.00,WUHU216HW,2013-10-08 13:39:00,
2013-10-08 06:44:00,47.2,36.7,29.83,North,0,0.0,0.0,67,0.00,,,0.00,WUHU216HW,2013-10-08 13:44:00,
2013-10-08 06:49:00,47.2,36.7,29.83,North,0,0.0,0.0,67,0.00,,,0.00,WUHU216HW,2013-10-08 13:49:00,
2013-10-08 06:54:00,47.2,37.2,29.83,North,0,0.0,0.0,68,0.00,,,0.00,WUHU216HW,2013-10-08 13:54:00,
2013-10-08 06:59:00,47.2,37.2,29.84,North,0,0.0,0.0,68,0.00,,,0.00,WUHU216HW,2013-10-08 13:59:00,
2013-10-08 07:04:00,47.5,37.4,29.84,North,0,0.0,0.0,68,0.00,,,0.00,WUHU216HW,2013-10-08 14:04:00,
2013-10-08 07:09:00,47.9,37.0,29.84,North,0,0.0,0.0,66,0.00,,,0.00,WUHU216HW,2013-10-08 14:09:00,
2013-10-08 07:14:00,48.8,37.1,29.84,North,0,0.0,0.0,64,0.00,,,0.00,WUHU216HW,2013-10-08 14:14:00,
2013-10-08 07:19:00,49.3,37.6,29.84,North,0,0.0,0.0,64,0.00,,,0.00,WUHU216HW,2013-10-08 14:19:00,
2013-10-08 07:24:00,49.7,37.5,29.84,North,0,0.0,0.0,63,0.00,,,0.00,WUHU216HW,2013-10-08 14:24:00,
2013-10-08 07:29:00,50.2,37.7,29.84,North,0,0.0,0.0,62,0.00,,,0.00,WUHU216HW,2013-10-08 14:29:00,
2013-10-08 07:34:00,50.8,37.4,29.84,ESE,113,0.2,0.2,60,0.00,,,0.00,WUHU216HW,2013-10-08 14:34:00,
2013-10-08 07:39:00,51.5,37.5,29.84,North,0,0.0,0.0,59,0.00,,,0.00,WUHU216HW,2013-10-08 14:39:00,
2013-10-08 07:44:00,52.0,37.6,29.84,SE,128,0.2,0.2,58,0.00,,,0.00,WUHU216HW,2013-10-08 14:44:00,
2013-10-08 07:49:00,52.7,37.9,29.84,North,0,0.0,0.0,57,0.00,,,0.00,WUHU216HW,2013-10-08 14:49:00,
2013-10-08 07:54:00,53.3,37.9,29.84,North,0,0.0,0.0,56,0.00,,,0.00,WUHU216HW,2013-10-08 14:54:00,
2013-10-08 07:59:00,53.8,38.0,29.84,North,0,0.0,0.0,55,0.00,,,0.00,WUHU216HW,2013-10-08 14:59:00,
2013-10-08 08:04:00,54.7,38.4,29.84,North,0,0.0,0.0,54,0.00,,,0.00,WUHU216HW,2013-10-08 15:04:00,
2013-10-08 08:09:00,55.4,38.5,29.85,North,0,0.0,0.0,53,0.00,,,0.00,WUHU216HW,2013-10-08 15:09:00,
2013-10-08 08:14:00,56.2,38.7,29.85,North,0,0.0,0.0,52,0.00,,,0.00,WUHU216HW,2013-10-08 15:14:00,
2013-10-08 08:19:00,56.9,39.0,29.85,North,0,0.0,0.0,51,0.00,,,0.00,WUHU216HW,2013-10-08 15:19:00,
2013-10-08 08:24:00,57.6,39.3,29.85,North,0,0.0,0.0,50,0.00,,,0.00,WUHU216HW,2013-10-08 15:24:00,
2013-10-08 08:29:00,58.3,38.7,29.85,North,0,0.0,0.0,48,0.00,,,0.00,WUHU216HW,2013-10-08 15:29:00,
2013-10-08 08:34:00,58.7,39.1,29.85,SE,136,1.4,2.7,48,0.00,,,0.00,WUHU216HW,2013-10-08 15:34:00,
2013-10-08 08:39:00,59.4,39.1,29.85,SSE,158,1.7,2.5,47,0.00,,,0.00,WUHU216HW,2013-10-08 15:39:00,
2013-10-08 08:44:00,59.9,39.6,29.85,SSE,165,1.9,3.6,47,0.00,,,0.00,WUHU216HW,2013-10-08 15:44:00,
2013-10-08 08:49:00,60.5,38.9,29.85,SSE,154,1.9,4.5,45,0.00,,,0.00,WUHU216HW,2013-10-08 15:49:00,
2013-10-08 08:54:00,61.0,39.4,29.85,SE,146,2.1,2.9,45,0.00,,,0.00,WUHU216HW,2013-10-08 15:54:00,
2013-10-08 08:59:00,61.7,38.9,29.85,SSE,164,2.6,3.8,43,0.00,,,0.00,WUHU216HW,2013-10-08 15:59:00,
2013-10-08 09:04:00,62.3,38.8,29.85,SSE,165,2.2,2.9,42,0.00,,,0.00,WUHU216HW,2013-10-08 16:04:00,
2013-10-08 09:09:00,63.0,39.4,29.85,SSE,164,2.3,3.4,42,0.00,,,0.00,WUHU216HW,2013-10-08 16:09:00,
2013-10-08 09:14:00,63.5,40.0,29.84,SSE,167,2.2,3.1,42,0.00,,,0.00,WUHU216HW,2013-10-08 16:14:00,
2013-10-08 09:19:00,64.3,39.4,29.84,SSE,153,2.3,3.1,40,0.00,,,0.00,WUHU216HW,2013-10-08 16:19:00,
2013-10-08 09:24:00,64.8,39.3,29.85,SSE,164,2.9,4.3,39,0.00,,,0.00,WUHU216HW,2013-10-08 16:24:00,
2013-10-08 09:29:00,65.2,39.5,29.84,SSE,160,3.2,5.4,39,0.00,,,0.00,WUHU216HW,2013-10-08 16:29:00,
2013-10-08 09:34:00,65.7,39.3,29.84,SSE,159,2.9,3.8,38,0.00,,,0.00,WUHU216HW,2013-10-08 16:34:00,
2013-10-08 09:39:00,66.2,39.8,29.84,SSE,165,3.3,4.7,38,0.00,,,0.00,WUHU216HW,2013-10-08 16:39:00,
2013-10-08 09:44:00,66.6,39.3,29.84,SSE,157,3.4,4.7,37,0.00,,,0.00,WUHU216HW,2013-10-08 16:44:00,
2013-10-08 09:49:00,67.1,39.9,29.84,South,182,3.4,4.7,37,0.00,,,0.00,WUHU216HW,2013-10-08 16:49:00,
2013-10-08 09:54:00,67.5,40.9,29.84,South,178,3.4,4.3,38,0.00,,,0.00,WUHU216HW,2013-10-08 16:54:00,
2013-10-08 09:59:00,68.0,40.6,29.85,South,181,3.1,5.4,37,0.00,,,0.00,WUHU216HW,2013-10-08 16:59:00,
2013-10-08 10:04:00,68.6,41.1,29.84,SSE,160,3.0,4.7,37,0.00,,,0.00,WUHU216HW,2013-10-08 17:04:00,
2013-10-08 10:09:00,69.1,40.9,29.84,South,182,2.8,5.1,36,0.00,,,0.00,WUHU216HW,2013-10-08 17:09:00,
2013-10-08 10:14:00,69.5,40.4,29.84,South,186,3.0,4.7,35,0.00,,,0.00,WUHU216HW,2013-10-08 17:14:00,
2013-10-08 10:19:00,69.8,40.8,29.84,SSE,153,3.2,4.9,35,0.00,,,0.00,WUHU216HW,2013-10-08 17:19:00,
2013-10-08 10:24:00,70.2,40.3,29.84,SSE,157,3.4,4.5,34,0.00,,,0.00,WUHU216HW,2013-10-08 17:24:00,
2013-10-08 10:29:00,70.4,40.5,29.84,SSE,167,3.3,5.1,34,0.00,,,0.00,WUHU216HW,2013-10-08 17:29:00,
2013-10-08 10:34:00,70.6,40.7,29.85,South,178,2.1,4.7,34,0.00,,,0.00,WUHU216HW,2013-10-08 17:34:00,
2013-10-08 10:39:00,71.3,41.3,29.84,South,170,3.1,4.9,34,0.00,,,0.00,WUHU216HW,2013-10-08 17:39:00,
2013-10-08 10:44:00,71.6,41.0,29.84,South,172,3.1,4.3,33,0.00,,,0.00,WUHU216HW,2013-10-08 17:44:00,
2013-10-08 10:49:00,72.0,41.2,29.84,South,185,3.0,4.3,33,0.00,,,0.00,WUHU216HW,2013-10-08 17:49:00,
2013-10-08 10:54:00,72.4,40.8,29.84,SSW,197,2.9,4.0,32,0.00,,,0.00,WUHU216HW,2013-10-08 17:54:00,
2013-10-08 10:59:00,72.4,40.1,29.83,SSE,168,3.4,4.3,31,0.00,,,0.00,WUHU216HW,2013-10-08 17:59:00,
2013-10-08 11:04:00,72.4,40.8,29.83,South,181,3.0,4.0,32,0.00,,,0.00,WUHU216HW,2013-10-08 18:04:00,
2013-10-08 11:09:00,72.9,41.2,29.83,South,175,3.4,4.9,32,0.00,,,0.00,WUHU216HW,2013-10-08 18:09:00,
2013-10-08 11:14:00,73.4,41.7,29.83,South,184,3.4,6.3,32,0.00,,,0.00,WUHU216HW,2013-10-08 18:14:00,
2013-10-08 11:19:00,73.8,41.2,29.83,SSW,203,3.4,5.6,31,0.00,,,0.00,WUHU216HW,2013-10-08 18:19:00,
2013-10-08 11:24:00,74.0,41.4,29.83,South,181,2.3,4.7,31,0.00,,,0.00,WUHU216HW,2013-10-08 18:24:00,
2013-10-08 11:29:00,74.2,41.6,29.83,SSE,166,3.4,4.7,31,0.00,,,0.00,WUHU216HW,2013-10-08 18:29:00,
2013-10-08 11:34:00,74.2,41.6,29.83,SSW,198,2.9,5.1,31,0.00,,,0.00,WUHU216HW,2013-10-08 18:34:00,
2013-10-08 11:39:00,74.5,41.9,29.82,SSE,149,2.4,3.6,31,0.00,,,0.00,WUHU216HW,2013-10-08 18:39:00,
2013-10-08 11:44:00,74.7,42.0,29.82,South,181,3.1,5.4,31,0.00,,,0.00,WUHU216HW,2013-10-08 18:44:00,
2013-10-08 11:49:00,75.1,41.6,29.82,SSE,166,3.3,4.7,30,0.00,,,0.00,WUHU216HW,2013-10-08 18:49:00,
2013-10-08 11:54:00,75.2,41.8,29.82,SE,146,2.8,4.7,30,0.00,,,0.00,WUHU216HW,2013-10-08 18:54:00,
2013-10-08 11:59:00,75.6,42.1,29.82,SSE,166,3.9,5.1,30,0.00,,,0.00,WUHU216HW,2013-10-08 18:59:00,
2013-10-08 12:04:00,76.0,42.4,29.82,South,184,3.0,4.7,30,0.00,,,0.00,WUHU216HW,2013-10-08 19:04:00,
2013-10-08 12:09:00,76.1,42.6,29.82,SSE,158,3.0,4.7,30,0.00,,,0.00,WUHU216HW,2013-10-08 19:09:00,
2013-10-08 12:14:00,76.7,43.0,29.81,SSW,200,2.6,4.0,30,0.00,,,0.00,WUHU216HW,2013-10-08 19:14:00,
2013-10-08 12:19:00,76.5,41.9,29.82,SSE,157,3.8,4.9,29,0.00,,,0.00,WUHU216HW,2013-10-08 19:19:00,
2013-10-08 12:24:00,76.7,43.8,29.82,SSE,161,3.2,4.7,31,0.00,,,0.00,WUHU216HW,2013-10-08 19:24:00,
2013-10-08 12:29:00,76.9,44.0,29.81,SSW,192,3.8,5.4,31,0.00,,,0.00,WUHU216HW,2013-10-08 19:29:00,
2013-10-08 12:34:00,77.0,43.4,29.81,SSW,194,2.8,4.0,30,0.00,,,0.00,WUHU216HW,2013-10-08 19:34:00,
2013-10-08 12:39:00,77.2,43.6,29.81,SSE,168,3.7,5.4,30,0.00,,,0.00,WUHU216HW,2013-10-08 19:39:00,
2013-10-08 12:44:00,77.4,43.7,29.81,South,180,2.8,3.8,30,0.00,,,0.00,WUHU216HW,2013-10-08 19:44:00,
2013-10-08 12:49:00,77.6,43.8,29.80,SSE,151,3.6,4.9,30,0.00,,,0.00,WUHU216HW,2013-10-08 19:49:00,
2013-10-08 12:54:00,77.6,43.8,29.80,South,177,2.7,4.3,30,0.00,,,0.00,WUHU216HW,2013-10-08 19:54:00,
2013-10-08 12:59:00,77.6,43.8,29.80,South,171,3.3,4.9,30,0.00,,,0.00,WUHU216HW,2013-10-08 19:59:00,
2013-10-08 13:04:00,78.3,44.4,29.80,SSE,167,2.3,3.6,30,0.00,,,0.00,WUHU216HW,2013-10-08 20:04:00,
2013-10-08 13:09:00,78.5,43.5,29.79,South,191,2.4,4.0,29,0.00,,,0.00,WUHU216HW,2013-10-08 20:09:00,
2013-10-08 13:14:00,78.1,43.2,29.79,South,190,2.1,6.3,29,0.00,,,0.00,WUHU216HW,2013-10-08 20:14:00,
2013-10-08 13:19:00,78.3,43.4,29.79,SW,221,2.4,4.3,29,0.00,,,0.00,WUHU216HW,2013-10-08 20:19:00,
2013-10-08 13:24:00,78.1,42.1,29.79,West,267,2.1,4.9,28,0.00,,,0.00,WUHU216HW,2013-10-08 20:24:00,
2013-10-08 13:29:00,78.3,42.3,29.79,South,186,1.8,3.8,28,0.00,,,0.00,WUHU216HW,2013-10-08 20:29:00,
2013-10-08 13:34:00,78.5,43.5,29.78,West,270,2.1,5.4,29,0.00,,,0.00,WUHU216HW,2013-10-08 20:34:00,
2013-10-08 13:39:00,78.8,43.7,29.78,WSW,250,1.6,2.9,29,0.00,,,0.00,WUHU216HW,2013-10-08 20:39:00,
2013-10-08 13:44:00,79.0,42.9,29.77,SW,227,2.1,4.0,28,0.00,,,0.00,WUHU216HW,2013-10-08 20:44:00,
2013-10-08 13:49:00,78.8,42.8,29.77,SSW,213,1.8,3.1,28,0.00,,,0.00,WUHU216HW,2013-10-08 20:49:00,
2013-10-08 13:54:00,79.0,42.9,29.77,WSW,257,1.7,3.6,28,0.00,,,0.00,WUHU216HW,2013-10-08 20:54:00,
2013-10-08 13:59:00,79.6,43.4,29.77,SSW,204,2.0,3.6,28,0.00,,,0.00,WUHU216HW,2013-10-08 20:59:00,
2013-10-08 14:04:00,79.9,43.8,29.77,SW,215,2.2,4.0,28,0.00,,,0.00,WUHU216HW,2013-10-08 21:04:00,
2013-10-08 14:09:00,80.3,44.0,29.76,South,186,1.8,3.6,28,0.00,,,0.00,WUHU216HW,2013-10-08 21:09:00,
2013-10-08 14:14:00,80.5,44.2,29.76,WSW,243,2.1,3.6,28,0.00,,,0.00,WUHU216HW,2013-10-08 21:14:00,
2013-10-08 14:19:00,80.6,42.3,29.76,SSW,205,1.7,3.6,26,0.00,,,0.00,WUHU216HW,2013-10-08 21:19:00,
2013-10-08 14:24:00,80.6,43.3,29.75,SSW,209,2.3,4.5,27,0.00,,,0.00,WUHU216HW,2013-10-08 21:24:00,
2013-10-08 14:29:00,80.6,44.4,29.75,West,280,1.6,3.4,28,0.00,,,0.00,WUHU216HW,2013-10-08 21:29:00,
2013-10-08 14:34:00,80.8,43.5,29.75,SSW,206,1.6,3.1,27,0.00,,,0.00,WUHU216HW,2013-10-08 21:34:00,
2013-10-08 14:39:00,81.0,44.6,29.75,SW,221,2.0,3.1,28,0.00,,,0.00,WUHU216HW,2013-10-08 21:39:00,
2013-10-08 14:44:00,81.0,44.6,29.74,South,179,2.5,4.7,28,0.00,,,0.00,WUHU216HW,2013-10-08 21:44:00,
2013-10-08 14:49:00,81.2,42.7,29.74,SSW,201,1.6,3.6,26,0.00,,,0.00,WUHU216HW,2013-10-08 21:49:00,
2013-10-08 14:54:00,81.0,42.6,29.74,SW,227,1.6,3.8,26,0.00,,,0.00,WUHU216HW,2013-10-08 21:54:00,
2013-10-08 14:59:00,81.0,42.6,29.74,SSW,212,1.5,3.4,26,0.00,,,0.00,WUHU216HW,2013-10-08 21:59:00,
2013-10-08 15:04:00,81.7,43.1,29.74,WNW,285,2.5,4.7,26,0.00,,,0.00,WUHU216HW,2013-10-08 22:04:00,
2013-10-08 15:09:00,81.7,43.1,29.74,WSW,258,1.0,1.8,26,0.00,,,0.00,WUHU216HW,2013-10-08 22:09:00,
2013-10-08 15:14:00,81.9,43.3,29.74,WNW,294,2.5,4.3,26,0.00,,,0.00,WUHU216HW,2013-10-08 22:14:00,
2013-10-08 15:19:00,81.9,42.2,29.74,WSW,252,1.7,2.9,25,0.00,,,0.00,WUHU216HW,2013-10-08 22:19:00,
2013-10-08 15:24:00,82.1,42.4,29.73,SSE,153,2.0,2.9,25,0.00,,,0.00,WUHU216HW,2013-10-08 22:24:00,
2013-10-08 15:29:00,82.1,42.4,29.73,SSW,206,1.5,2.7,25,0.00,,,0.00,WUHU216HW,2013-10-08 22:29:00,
2013-10-08 15:34:00,82.1,42.4,29.73,South,187,2.0,2.7,25,0.00,,,0.00,WUHU216HW,2013-10-08 22:34:00,
2013-10-08 15:39:00,82.1,43.4,29.72,South,175,1.3,2.7,26,0.00,,,0.00,WUHU216HW,2013-10-08 22:39:00,
2013-10-08 15:44:00,82.1,42.4,29.72,West,269,1.7,3.4,25,0.00,,,0.00,WUHU216HW,2013-10-08 22:44:00,
2013-10-08 15:49:00,81.7,41.0,29.72,West,260,2.1,4.3,24,0.00,,,0.00,WUHU216HW,2013-10-08 22:49:00,
2013-10-08 15:54:00,81.7,41.0,29.72,WSW,247,1.8,4.3,24,0.00,,,0.00,WUHU216HW,2013-10-08 22:54:00,
2013-10-08 16:00:00,81.7,42.1,29.72,NW,321,1.0,1.8,25,0.00,,,0.00,WUHU216HW,2013-10-08 23:00:00,
2013-10-08 16:05:00,81.9,42.2,29.72,SW,224,1.1,2.9,25,0.00,,,0.00,WUHU216HW,2013-10-08 23:05:00,
2013-10-08 16:10:00,82.3,42.5,29.72,West,273,1.4,2.5,25,0.00,,,0.00,WUHU216HW,2013-10-08 23:10:00,
2013-10-08 16:15:00,82.4,42.7,29.71,West,265,1.4,3.4,25,0.00,,,0.00,WUHU216HW,2013-10-08 23:15:00,
2013-10-08 16:20:00,82.6,42.9,29.71,West,281,2.5,4.0,25,0.00,,,0.00,WUHU216HW,2013-10-08 23:20:00,
2013-10-08 16:25:00,82.6,42.9,29.71,West,271,1.9,3.1,25,0.00,,,0.00,WUHU216HW,2013-10-08 23:25:00,
2013-10-08 16:30:00,82.6,42.9,29.71,WNW,291,1.5,2.5,25,0.00,,,0.00,WUHU216HW,2013-10-08 23:30:00,
2013-10-08 16:35:00,82.6,42.9,29.71,SSE,150,1.1,2.2,25,0.00,,,0.00,WUHU216HW,2013-10-08 23:35:00,
2013-10-08 16:40:00,82.4,42.7,29.71,WSW,245,1.6,4.0,25,0.00,,,0.00,WUHU216HW,2013-10-08 23:40:00,
2013-10-08 16:45:00,82.3,41.5,29.71,WSW,249,1.1,2.5,24,0.00,,,0.00,WUHU216HW,2013-10-08 23:45:00,
2013-10-08 16:50:00,81.9,42.2,29.71,WNW,302,1.7,3.4,25,0.00,,,0.00,WUHU216HW,2013-10-08 23:50:00,
2013-10-08 16:55:00,81.7,42.1,29.70,West,276,1.9,3.4,25,0.00,,,0.00,WUHU216HW,2013-10-08 23:55:00,
2013-10-08 17:00:00,81.4,40.8,29.71,WNW,288,1.9,3.6,24,0.00,,,0.00,WUHU216HW,2013-10-09 00:00:00,
2013-10-08 17:05:00,81.0,40.5,29.70,NW,307,2.0,2.9,24,0.00,,,0.00,WUHU216HW,2013-10-09 00:05:00,
2013-10-08 17:10:00,80.5,40.1,29.70,WNW,287,1.6,2.5,24,0.00,,,0.00,WUHU216HW,2013-10-09 00:10:00,
2013-10-08 17:15:00,80.3,40.9,29.70,WNW,299,1.5,2.5,25,0.00,,,0.00,WUHU216HW,2013-10-09 00:15:00,
2013-10-08 17:20:00,79.9,40.6,29.70,NW,309,1.7,2.5,25,0.00,,,0.00,WUHU216HW,2013-10-09 00:20:00,
2013-10-08 17:25:00,79.9,41.6,29.69,NW,315,1.0,2.0,26,0.00,,,0.00,WUHU216HW,2013-10-09 00:25:00,
2013-10-08 17:30:00,79.6,43.4,29.69,NNW,338,0.5,1.1,28,0.00,,,0.00,WUHU216HW,2013-10-09 00:30:00,
2013-10-08 17:35:00,79.2,44.1,29.69,NNW,339,0.5,1.1,29,0.00,,,0.00,WUHU216HW,2013-10-09 00:35:00,
2013-10-08 17:40:00,78.7,44.6,29.69,NNW,342,0.2,0.4,30,0.00,,,0.00,WUHU216HW,2013-10-09 00:40:00,
2013-10-08 17:45:00,78.1,44.3,29.69,NNW,343,0.3,0.4,30,0.00,,,0.00,WUHU216HW,2013-10-09 00:45:00,
2013-10-08 17:50:00,77.6,44.6,29.69,NNW,338,0.2,0.2,31,0.00,,,0.00,WUHU216HW,2013-10-09 00:50:00,
2013-10-08 17:55:00,77.2,45.0,29.69,North,0,0.0,0.0,32,0.00,,,0.00,WUHU216HW,2013-10-09 00:55:00,
2013-10-08 18:00:00,76.7,44.6,29.69,NNW,338,0.2,0.2,32,0.00,,,0.00,WUHU216HW,2013-10-09 01:00:00,
2013-10-08 18:05:00,76.3,45.7,29.69,NNW,346,0.2,0.2,34,0.00,,,0.00,WUHU216HW,2013-10-09 01:05:00,
2013-10-08 18:10:00,75.6,46.6,29.69,North,0,0.2,0.2,36,0.00,,,0.00,WUHU216HW,2013-10-09 01:10:00,
2013-10-08 18:15:00,74.9,46.7,29.69,North,0,0.0,0.0,37,0.00,,,0.00,WUHU216HW,2013-10-09 01:15:00,
2013-10-08 18:20:00,74.5,46.5,29.69,North,0,0.0,0.0,37,0.00,,,0.00,WUHU216HW,2013-10-09 01:20:00,
2013-10-08 18:25:00,74.5,46.5,29.69,NNW,338,0.2,0.2,37,0.00,,,0.00,WUHU216HW,2013-10-09 01:25:00,
2013-10-08 18:30:00,74.3,46.3,29.69,NNW,338,0.2,0.2,37,0.00,,,0.00,WUHU216HW,2013-10-09 01:30:00,
2013-10-08 18:35:00,74.0,45.9,29.69,North,0,0.0,0.0,37,0.00,,,0.00,WUHU216HW,2013-10-09 01:35:00,
2013-10-08 18:40:00,73.6,46.4,29.69,North,0,0.0,0.0,38,0.00,,,0.00,WUHU216HW,2013-10-09 01:40:00,
2013-10-08 18:45:00,73.3,46.8,29.69,North,0,0.0,0.0,39,0.00,,,0.00,WUHU216HW,2013-10-09 01:45:00,
2013-10-08 18:50:00,72.9,47.3,29.69,North,0,0.6,1.1,40,0.00,,,0.00,WUHU216HW,2013-10-09 01:50:00,
2013-10-08 18:55:00,72.5,46.9,29.69,North,0,0.0,0.0,40,0.00,,,0.00,WUHU216HW,2013-10-09 01:55:00,
2013-10-08 19:00:00,72.2,46.5,29.69,North,0,0.0,0.0,40,0.00,,,0.00,WUHU216HW,2013-10-09 02:00:00,
2013-10-08 19:05:00,71.8,46.3,29.69,North,0,0.0,0.0,40,0.00,,,0.00,WUHU216HW,2013-10-09 02:05:00,
2013-10-08 19:10:00,71.3,46.4,29.69,North,0,0.0,0.0,41,0.00,,,0.00,WUHU216HW,2013-10-09 02:10:00,
2013-10-08 19:15:00,70.7,46.4,29.68,North,0,0.0,0.0,42,0.00,,,0.00,WUHU216HW,2013-10-09 02:15:00,
2013-10-08 19:20:00,70.2,46.5,29.68,North,0,0.0,0.0,43,0.00,,,0.00,WUHU216HW,2013-10-09 02:20:00,
2013-10-08 19:25:00,69.8,46.3,29.68,North,0,0.0,0.0,43,0.00,,,0.00,WUHU216HW,2013-10-09 02:25:00,
2013-10-08 19:30:00,69.7,46.1,29.69,North,0,0.0,0.0,43,0.00,,,0.00,WUHU216HW,2013-10-09 02:30:00,
2013-10-08 19:35:00,69.3,46.4,29.68,North,0,0.0,0.0,44,0.00,,,0.00,WUHU216HW,2013-10-09 02:35:00,
2013-10-08 19:40:00,68.6,45.7,29.68,North,0,0.0,0.0,44,0.00,,,0.00,WUHU216HW,2013-10-09 02:40:00,
2013-10-08 19:45:00,68.0,45.2,29.68,North,0,0.0,0.0,44,0.00,,,0.00,WUHU216HW,2013-10-09 02:45:00,
2013-10-08 19:50:00,67.9,45.6,29.68,North,0,0.0,0.0,45,0.00,,,0.00,WUHU216HW,2013-10-09 02:50:00,
2013-10-08 19:55:00,67.3,45.2,29.68,North,0,0.0,0.0,45,0.00,,,0.00,WUHU216HW,2013-10-09 02:55:00,
2013-10-08 20:00:00,67.3,45.7,29.68,North,0,0.0,0.0,46,0.00,,,0.00,WUHU216HW,2013-10-09 03:00:00,
2013-10-08 20:05:00,67.1,45.6,29.68,North,0,0.0,0.0,46,0.00,,,0.00,WUHU216HW,2013-10-09 03:05:00,
2013-10-08 20:10:00,67.0,45.5,29.68,North,0,0.0,0.0,46,0.00,,,0.00,WUHU216HW,2013-10-09 03:10:00,
2013-10-08 20:15:00,66.6,45.1,29.68,North,0,0.0,0.0,46,0.00,,,0.00,WUHU216HW,2013-10-09 03:15:00,
2013-10-08 20:20:00,66.2,44.8,29.68,North,0,0.0,0.0,46,0.00,,,0.00,WUHU216HW,2013-10-09 03:20:00,
2013-10-08 20:25:00,66.1,45.2,29.68,North,0,0.0,0.0,47,0.00,,,0.00,WUHU216HW,2013-10-09 03:25:00,
2013-10-08 20:30:00,65.9,45.6,29.67,North,0,0.0,0.0,48,0.00,,,0.00,WUHU216HW,2013-10-09 03:30:00,
2013-10-08 20:35:00,65.9,45.0,29.67,North,0,0.0,0.0,47,0.00,,,0.00,WUHU216HW,2013-10-09 03:35:00,
2013-10-08 20:40:00,65.9,45.0,29.67,North,0,0.0,0.0,47,0.00,,,0.00,WUHU216HW,2013-10-09 03:40:00,
2013-10-08 20:45:00,65.7,46.0,29.67,North,0,0.0,0.0,49,0.00,,,0.00,WUHU216HW,2013-10-09 03:45:00,
2013-10-08 20:50:00,65.9,46.2,29.67,North,0,0.0,0.0,49,0.00,,,0.00,WUHU216HW,2013-10-09 03:50:00,
2013-10-08 20:55:00,65.9,46.8,29.67,North,0,0.0,0.0,50,0.00,,,0.00,WUHU216HW,2013-10-09 03:55:00,
2013-10-08 21:00:00,65.9,46.8,29.67,North,0,0.0,0.0,50,0.00,,,0.00,WUHU216HW,2013-10-09 04:00:00,
2013-10-08 21:05:00,65.5,46.9,29.66,North,0,0.0,0.0,51,0.00,,,0.00,WUHU216HW,2013-10-09 04:05:00,
2013-10-08 21:10:00,65.3,46.7,29.66,North,0,0.0,0.0,51,0.00,,,0.00,WUHU216HW,2013-10-09 04:10:00,
2013-10-08 21:15:00,65.2,46.1,29.66,North,0,0.0,0.0,50,0.00,,,0.00,WUHU216HW,2013-10-09 04:15:00,
2013-10-08 21:20:00,64.8,45.7,29.67,North,0,0.0,0.0,50,0.00,,,0.00,WUHU216HW,2013-10-09 04:20:00,
2013-10-08 21:25:00,64.4,45.4,29.66,North,0,0.0,0.0,50,0.00,,,0.00,WUHU216HW,2013-10-09 04:25:00,
2013-10-08 21:30:00,63.9,45.8,29.67,North,0,0.0,0.0,52,0.00,,,0.00,WUHU216HW,2013-10-09 04:30:00,
2013-10-08 21:35:00,63.0,46.0,29.66,North,0,0.0,0.0,54,0.00,,,0.00,WUHU216HW,2013-10-09 04:35:00,
2013-10-08 21:40:00,62.5,45.6,29.67,North,0,0.0,0.0,54,0.00,,,0.00,WUHU216HW,2013-10-09 04:40:00,
2013-10-08 21:45:00,62.5,45.6,29.67,North,0,0.0,0.0,54,0.00,,,0.00,WUHU216HW,2013-10-09 04:45:00,
2013-10-08 21:50:00,62.3,45.4,29.67,North,0,0.0,0.0,54,0.00,,,0.00,WUHU216HW,2013-10-09 04:50:00,
2013-10-08 21:55:00,61.7,45.4,29.67,North,0,0.0,0.0,55,0.00,,,0.00,WUHU216HW,2013-10-09 04:55:00,
2013-10-08 22:00:00,61.4,45.0,29.67,North,0,0.0,0.0,55,0.00,,,0.00,WUHU216HW,2013-10-09 05:00:00,
2013-10-08 22:05:00,60.8,44.6,29.67,North,0,0.0,0.0,55,0.00,,,0.00,WUHU216HW,2013-10-09 05:05:00,
2013-10-08 22:10:00,60.8,44.6,29.67,North,0,0.0,0.0,55,0.00,,,0.00,WUHU216HW,2013-10-09 05:10:00,
2013-10-08 22:15:00,60.7,44.8,29.67,North,0,0.0,0.0,56,0.00,,,0.00,WUHU216HW,2013-10-09 05:15:00,
2013-10-08 22:20:00,60.5,45.2,29.67,North,0,0.0,0.0,57,0.00,,,0.00,WUHU216HW,2013-10-09 05:20:00,
2013-10-08 22:25:00,60.1,44.8,29.67,North,0,0.0,0.0,57,0.00,,,0.00,WUHU216HW,2013-10-09 05:25:00,
2013-10-08 22:30:00,59.9,44.6,29.67,North,0,0.0,0.0,57,0.00,,,0.00,WUHU216HW,2013-10-09 05:30:00,
2013-10-08 22:35:00,59.8,44.5,29.67,North,0,0.0,0.0,57,0.00,,,0.00,WUHU216HW,2013-10-09 05:35:00,
2013-10-08 22:40:00,59.4,44.1,29.67,North,0,0.0,0.0,57,0.00,,,0.00,WUHU216HW,2013-10-09 05:40:00,
2013-10-08 22:45:00,59.2,44.5,29.67,North,0,0.0,0.0,58,0.00,,,0.00,WUHU216HW,2013-10-09 05:45:00,
2013-10-08 22:50:00,59.0,44.7,29.67,North,0,0.0,0.0,59,0.00,,,0.00,WUHU216HW,2013-10-09 05:50:00,
2013-10-08 22:55:00,58.7,44.4,29.67,North,0,0.0,0.0,59,0.00,,,0.00,WUHU216HW,2013-10-09 05:55:00,
2013-10-08 23:00:00,58.7,44.4,29.67,North,0,0.0,0.0,59,0.00,,,0.00,WUHU216HW,2013-10-09 06:00:00,
2013-10-08 23:05:00,58.7,43.9,29.67,North,0,0.0,0.0,58,0.00,,,0.00,WUHU216HW,2013-10-09 06:05:00,
2013-10-08 23:10:00,58.5,44.2,29.67,North,0,0.0,0.0,59,0.00,,,0.00,WUHU216HW,2013-10-09 06:10:00,
2013-10-08 23:15:00,58.3,44.1,29.67,North,0,0.0,0.0,59,0.00,,,0.00,WUHU216HW,2013-10-09 06:15:00,
2013-10-08 23:20:00,58.3,44.6,29.67,North,0,0.0,0.0,60,0.00,,,0.00,WUHU216HW,2013-10-09 06:20:00,
2013-10-08 23:25:00,58.1,44.4,29.67,North,0,0.0,0.0,60,0.00,,,0.00,WUHU216HW,2013-10-09 06:25:00,
2013-10-08 23:30:00,58.3,44.1,29.67,North,0,0.0,0.0,59,0.00,,,0.00,WUHU216HW,2013-10-09 06:30:00,
2013-10-08 23:35:00,58.3,44.1,29.67,North,0,0.0,0.0,59,0.00,,,0.00,WUHU216HW,2013-10-09 06:35:00,
2013-10-08 23:40:00,58.5,44.2,29.67,North,0,0.0,0.0,59,0.00,,,0.00,WUHU216HW,2013-10-09 06:40:00,
2013-10-08 23:45:00,58.1,43.9,29.66,North,0,0.0,0.0,59,0.00,,,0.00,WUHU216HW,2013-10-09 06:45:00,
2013-10-08 23:50:00,58.0,43.7,29.67,North,0,0.0,0.0,59,0.00,,,0.00,WUHU216HW,2013-10-09 06:50:00,
2013-10-08 23:55:00,57.4,43.3,29.66,North,0,0.0,0.0,59,0.00,,,0.00,WUHU216HW,2013-10-09 06:55:00,